When you browse on this site, cookies collect data to enhance your experience and personalize the content and advertising you see.
Visit our Privacy Policy to learn more. By continuing to use the site, you agree to this use of cookies and data.
  • En España
  • Lista de países
  • Para 7 días
  • Temperatura del agua
  • El tiempo en el mapa
  • Informadores
  • user-avatar
    Iniciar sesión

    Tiempo cada hora Podebrady

    Hoy, 4 Junio, Jueves

    Tiempo Temperatura Precipitaciones Viento Presión Humedad
    00:00 +12°C° 0 mm 2 mps 734 mmHg 83%
    01:00 +12°C° 0 mm 2 mps 733 mmHg 84%
    02:00 +10°C° 0 mm 2 mps 733 mmHg 85%
    03:00 +10°C° 0 mm 2 mps 733 mmHg 86%
    04:00 +10°C° 0 mm 2 mps 732 mmHg 87%
    05:00 +12°C° 0 mm 2 mps 732 mmHg 85%
    06:00 +14°C° 0 mm 2 mps 732 mmHg 82%
    07:00 +15°C° 0 mm 2 mps 732 mmHg 80%
    08:00 +17°C° 0 mm 2 mps 732 mmHg 76%
    09:00 +18°C° 0 mm 2 mps 732 mmHg 73%
    10:00 +20°C° 0 mm 2 mps 731 mmHg 70%
    11:00 +19°C° 0.9 mm 2 mps 731 mmHg 76%
    12:00 +18°C° 0.9 mm 2 mps 731 mmHg 81%
    13:00 +19°C° 0.9 mm 1 mps 730 mmHg 87%
    14:00 +19°C° 0.3 mm 2 mps 730 mmHg 85%
    15:00 +19°C° 0.3 mm 2 mps 729 mmHg 82%
    16:00 +20°C° 0.3 mm 3 mps 728 mmHg 79%
    17:00 +20°C° 0.6 mm 3 mps 728 mmHg 82%
    18:00 +19°C° 0.6 mm 2 mps 727 mmHg 84%
    19:00 +19°C° 0.6 mm 2 mps 727 mmHg 86%
    20:00 +18°C° 0.6 mm 2 mps 727 mmHg 88%
    21:00 +17°C° 0.6 mm 2 mps 727 mmHg 89%
    22:00 +17°C° 0.6 mm 2 mps 727 mmHg 91%
    23:00 +16°C° 1.8 mm 3 mps 727 mmHg 92%

    Mañana, 5 Junio, Viernes

    Tiempo Temperatura Precipitaciones Viento Presión Humedad
    00:00 +14°C° 1.8 mm 4 mps 727 mmHg 94%
    01:00 +14°C° 1.8 mm 5 mps 728 mmHg 95%
    02:00 +14°C° 1 mm 4 mps 728 mmHg 96%
    03:00 +14°C° 1 mm 4 mps 728 mmHg 96%
    04:00 +13°C° 1 mm 3 mps 728 mmHg 96%
    05:00 +13°C° 0.2 mm 3 mps 729 mmHg 94%
    06:00 +13°C° 0.2 mm 3 mps 729 mmHg 93%
    07:00 +13°C° 0.2 mm 3 mps 730 mmHg 91%
    08:00 +13°C° 0.2 mm 3 mps 730 mmHg 90%
    09:00 +13°C° 0.2 mm 3 mps 731 mmHg 88%
    10:00 +13°C° 0.2 mm 3 mps 731 mmHg 87%
    11:00 +13°C° 0.3 mm 3 mps 731 mmHg 86%
    12:00 +14°C° 0.3 mm 2 mps 731 mmHg 85%
    13:00 +14°C° 0.3 mm 2 mps 731 mmHg 84%
    14:00 +14°C° 0.1 mm 2 mps 731 mmHg 82%
    15:00 +15°C° 0.1 mm 2 mps 732 mmHg 80%
    16:00 +16°C° 0.1 mm 2 mps 732 mmHg 78%
    17:00 +14°C° 0.2 mm 3 mps 732 mmHg 81%
    18:00 +14°C° 0.2 mm 3 mps 731 mmHg 84%
    19:00 +14°C° 0.2 mm 3 mps 731 mmHg 87%
    20:00 +13°C° 0.1 mm 4 mps 732 mmHg 87%
    21:00 +12°C° 0.1 mm 4 mps 733 mmHg 88%
    22:00 +12°C° 0.1 mm 5 mps 733 mmHg 88%
    23:00 +11°C° 0 mm 4 mps 733 mmHg 89%

    Pasado mañana, 6 Junio, Sábado

    Tiempo Temperatura Precipitaciones Viento Presión Humedad
    00:00 +11°C° 0 mm 4 mps 733 mmHg 90%
    01:00 +10°C° 0 mm 4 mps 733 mmHg 91%
    02:00 +10°C° 0 mm 4 mps 733 mmHg 90%
    03:00 +10°C° 0 mm 4 mps 733 mmHg 89%
    04:00 +10°C° 0 mm 5 mps 734 mmHg 88%
    05:00 +11°C° 0.6 mm 4 mps 734 mmHg 90%
    06:00 +11°C° 0.6 mm 4 mps 734 mmHg 92%
    07:00 +11°C° 0.6 mm 3 mps 735 mmHg 93%
    08:00 +11°C° 0.2 mm 4 mps 736 mmHg 91%
    09:00 +12°C° 0.2 mm 4 mps 736 mmHg 88%
    10:00 +12°C° 0.2 mm 5 mps 737 mmHg 86%
    11:00 +13°C° 0 mm 5 mps 737 mmHg 80%
    12:00 +15°C° 0 mm 5 mps 737 mmHg 73%
    13:00 +16°C° 0 mm 6 mps 737 mmHg 67%
    14:00 +16°C° 0 mm 5 mps 737 mmHg 68%
    15:00 +18°C° 0 mm 4 mps 737 mmHg 69%
    16:00 +18°C° 0 mm 3 mps 737 mmHg 70%
    17:00 +17°C° 0 mm 2 mps 737 mmHg 73%
    18:00 +16°C° 0 mm 2 mps 737 mmHg 75%
    19:00 +15°C° 0 mm 2 mps 737 mmHg 78%
    20:00 +15°C° 0.1 mm 2 mps 738 mmHg 81%
    21:00 +15°C° 0.1 mm 2 mps 738 mmHg 83%
    22:00 +14°C° 0.1 mm 1 mps 739 mmHg 86%
    23:00 +14°C° 0 mm 2 mps 738 mmHg 87%

    7 Junio, Domingo

    Tiempo Temperatura Precipitaciones Viento Presión Humedad
    00:00 +14°C° 0 mm 2 mps 738 mmHg 88%
    01:00 +14°C° 0 mm 2 mps 738 mmHg 89%
    02:00 +14°C° 0 mm 2 mps 738 mmHg 91%
    03:00 +13°C° 0 mm 2 mps 738 mmHg 92%
    04:00 +13°C° 0 mm 2 mps 738 mmHg 94%
    05:00 +14°C° 0 mm 2 mps 739 mmHg 91%
    06:00 +15°C° 0 mm 2 mps 739 mmHg 88%
    07:00 +16°C° 0 mm 2 mps 739 mmHg 86%
    08:00 +18°C° 0 mm 2 mps 739 mmHg 80%
    09:00 +19°C° 0 mm 2 mps 739 mmHg 73%
    10:00 +21°C° 0 mm 1 mps 740 mmHg 67%
    11:00 +22°C° 0.1 mm 1 mps 739 mmHg 66%
    12:00 +22°C° 0.1 mm 1 mps 739 mmHg 65%
    13:00 +23°C° 0.1 mm 1 mps 739 mmHg 64%
    14:00 +21°C° 0.4 mm 2 mps 739 mmHg 67%
    15:00 +21°C° 0.4 mm 3 mps 739 mmHg 70%
    16:00 +20°C° 0.4 mm 4 mps 739 mmHg 73%
    17:00 +18°C° 0.1 mm 4 mps 739 mmHg 77%
    18:00 +17°C° 0.1 mm 4 mps 740 mmHg 82%
    19:00 +14°C° 0.1 mm 4 mps 740 mmHg 86%
    20:00 +13°C° 0.9 mm 3 mps 740 mmHg 89%
    21:00 +13°C° 0.9 mm 3 mps 741 mmHg 92%
    22:00 +12°C° 0.9 mm 3 mps 741 mmHg 94%
    23:00 +12°C° 2.1 mm 3 mps 741 mmHg 95%

    8 Junio, Lunes

    Tiempo Temperatura Precipitaciones Viento Presión Humedad
    00:00 +12°C° 2.1 mm 3 mps 741 mmHg 96%
    01:00 +12°C° 2.1 mm 3 mps 741 mmHg 97%
    02:00 +12°C° 2.9 mm 3 mps 741 mmHg 97%
    03:00 +11°C° 2.9 mm 3 mps 741 mmHg 97%
    04:00 +11°C° 2.9 mm 3 mps 741 mmHg 97%
    05:00 +11°C° 1.6 mm 3 mps 741 mmHg 97%
    06:00 +11°C° 1.6 mm 3 mps 741 mmHg 97%
    07:00 +11°C° 1.6 mm 3 mps 741 mmHg 97%
    08:00 +11°C° 1.3 mm 3 mps 742 mmHg 96%
    09:00 +12°C° 1.3 mm 2 mps 742 mmHg 95%
    10:00 +12°C° 1.3 mm 2 mps 742 mmHg 94%
    11:00 +13°C° 0.1 mm 2 mps 742 mmHg 90%
    12:00 +15°C° 0.1 mm 2 mps 742 mmHg 85%
    13:00 +16°C° 0.1 mm 2 mps 742 mmHg 81%
    14:00 +16°C° 0.1 mm 1 mps 742 mmHg 77%
    15:00 +18°C° 0.1 mm 1 mps 742 mmHg 73%
    16:00 +19°C° 0.1 mm 1 mps 742 mmHg 69%
    17:00 +18°C° 0.1 mm 1 mps 742 mmHg 74%
    18:00 +18°C° 0.1 mm 1 mps 742 mmHg 79%
    19:00 +16°C° 0.1 mm 1 mps 742 mmHg 84%
    20:00 +15°C° 0 mm 1 mps 742 mmHg 86%
    21:00 +14°C° 0 mm 1 mps 742 mmHg 88%
    22:00 +13°C° 0 mm 1 mps 743 mmHg 90%
    23:00 +13°C° 0 mm 1 mps 743 mmHg 90%

    9 Junio, Martes

    Tiempo Temperatura Precipitaciones Viento Presión Humedad
    00:00 +12°C° 0 mm 1 mps 743 mmHg 91%
    01:00 +12°C° 0 mm 1 mps 743 mmHg 91%
    02:00 +11°C° 0 mm 1 mps 743 mmHg 91%
    03:00 +11°C° 0 mm 1 mps 743 mmHg 92%
    04:00 +11°C° 0 mm 1 mps 742 mmHg 92%
    05:00 +12°C° 0 mm 1 mps 743 mmHg 89%
    06:00 +13°C° 0 mm 1 mps 743 mmHg 86%
    07:00 +15°C° 0 mm 1 mps 743 mmHg 83%
    08:00 +16°C° 0 mm 1 mps 743 mmHg 77%
    09:00 +19°C° 0 mm 1 mps 743 mmHg 72%
    10:00 +19°C° 0 mm 2 mps 743 mmHg 67%
    11:00 +19°C° 0.1 mm 2 mps 743 mmHg 66%
    12:00 +20°C° 0.1 mm 2 mps 743 mmHg 64%
    13:00 +20°C° 0.1 mm 3 mps 743 mmHg 63%
    14:00 +20°C° 0.1 mm 3 mps 743 mmHg 65%
    15:00 +20°C° 0.1 mm 3 mps 743 mmHg 67%
    16:00 +19°C° 0.1 mm 4 mps 743 mmHg 69%
    17:00 +18°C° 0.2 mm 3 mps 743 mmHg 74%
    18:00 +17°C° 0.2 mm 2 mps 743 mmHg 79%
    19:00 +16°C° 0.2 mm 2 mps 743 mmHg 83%
    20:00 +15°C° 0.2 mm 2 mps 743 mmHg 85%
    21:00 +15°C° 0.2 mm 2 mps 744 mmHg 88%
    22:00 +14°C° 0.2 mm 2 mps 744 mmHg 90%
    23:00 +14°C° 0.3 mm 2 mps 744 mmHg 92%
    Mostrar más